This demonstration page uses our WeatherBlox Daily Observations layout. Learn more.

Left ArrowRight Arrow

Hourly Observations for August 28, 2020

Temp ( °F °C ) Dew Point ( °F °C ) Humidity (%) Winds ( mph kmh ) Pressure ( in mb ) Visibility ( mi km ) Precip ( " mm )
12:53 am 00:53 Clear 75 23.9 66 18.9 74 74 S 8 13 29.74 1007 10 16 0.00 0.00
1:53 am 01:53 Clear 73 22.8 65 18.3 76 76 S 6 9 29.74 1007 10 16 0.00 0.00
2:53 am 02:53 Clear 72 22.2 65 18.3 79 79 S 8 13 29.73 1007 10 16 0.00 0.00
3:53 am 03:53 Clear 71 21.7 64 17.8 79 79 S 6 9 29.73 1007 10 16 0.00 0.00
4:53 am 04:53 Clear 71 21.7 64 17.8 79 79 SSW 5 7 29.73 1007 10 16 0.00 0.00
5:53 am 05:53 Clear 70 21.1 63 17.2 79 79 undefined N/A 29.74 1007 10 16 0.00 0.00
6:53 am 06:53 Clear 69 20.6 63 17.2 81 81 ENE 5 7 29.78 1008 10 16 0.00 0.00
7:53 am 07:53 Sunny 69 20.6 65 18.3 87 87 NE 5 7 29.81 1009 7 11 0.00 0.00
8:53 am 08:53 Sunny 74 23.3 65 18.3 74 74 E 5 7 29.81 1009 10 16 0.00 0.00
9:53 am 09:53 Sunny 78 25.6 65 18.3 64 64 E 3 6 29.79 1009 10 16 0.00 0.00
10:53 am 10:53 Sunny 84 28.9 66 18.9 55 55 Calm 29.78 1009 10 16 0.00 0.00
11:53 am 11:53 Sunny 87 30.6 67 19.4 51 51 SSE 6 9 29.78 1009 10 16 0.00 0.00
12:53 pm 12:53 Sunny 91 32.8 67 19.4 45 45 N 5 7 29.79 1009 10 16 0.00 0.00
1:53 pm 13:53 Sunny 91 32.8 67 19.4 45 45 undefined N/A 29.78 1009 10 16 0.00 0.00
2:53 pm 14:53 Sunny 91 32.8 68 20 47 47 N 6 9 29.78 1009 10 16 0.00 0.00
3:53 pm 15:53 Sunny 93 33.9 68 20 44 44 N 13 20 29.80 1009 10 16 0.00 0.00
4:53 pm 16:53 Sunny 89 31.7 68 20 50 50 NNE 16 26 29.80 1009 10 16 0.00 0.00
5:53 pm 17:53 Sunny 87 30.6 64 17.8 46 46 NNE 18 30 29.83 1010 10 16 0.00 0.00
6:53 pm 18:53 Sunny 83 28.3 63 17.2 51 51 NNE 12 19 29.85 1011 10 16 0.00 0.00
7:53 pm 19:53 Mostly Sunny 80 26.7 64 17.8 58 58 NE 9 15 29.88 1012 10 16 0.00 0.00
8:53 pm 20:53 Mostly Cloudy 77 25 63 17.2 62 62 NNE 7 11 29.91 1013 10 16 0.00 0.00
9:53 pm 21:53 Mostly Clear 77 25 63 17.2 62 62 NNE 16 26 29.92 1013 10 16 0.00 0.00
10:53 pm 22:53 Clear 74 23.3 63 17.2 69 69 N 8 13 29.96 1014 10 16 0.00 0.00
11:53 pm 23:53 Clear 70 21.1 62 16.7 76 76 N 7 11 29.95 1014 10 16 0.00 0.00

Powered by AerisWeather